Regional Weather Roundup
Issued by NWS

Home | Current Version | Previous Version | Graphics & Text | Print | Product List | Glossary On
Versions: 1 2 3 4 5 6 7 8 9 10 11 12 13 14 15 16 17 18 19 20 21 22 23 24 25 26 27 28 29 30 31 32 33 34 35 36 37 38 39 40 41 42 43 44 45 46 47 48 49 50
567
ASUS45 KABQ 240410
RWRNM
NEW MEXICO REGIONAL WEATHER ROUNDUP
NATIONAL WEATHER SERVICE ALBUQUERQUE NM
900 PM MST MON JAN 23 2017

NOTE: "FAIR" MEANS FEW OR NO CLOUDS BELOW 12,000 FEET AGL WITH NO
       SIGNIFICANT WEATHER OR OBSTRUCTIONS TO VISION.

      THIS PRODUCT IS RELEASED AS TWO VERSIONS.  ONE VERSION NEAR
      THE TOP OF THE HOUR CONTAINING PRELIMINARY DATA FROM ALBUQUERQUE
      AND OTHER STATIONS.  A FINAL VERSION WITH ADDITIONAL DATA IS
      ISSUED ABOUT 10 MINUTES AFTER THE HOUR.

NMZ501-503-504-510>518-240500-
NORTHWEST PLATEAU/NORTHCENTRAL MOUNTAINS

CITY           SKY/WX    TMP DP  RH WIND       PRES   REMARKS
FARMINGTON     LGT SNOW  31  30  96 W8        29.67R VSB 3/4 WCI  23
LOS ALAMOS     CLOUDY    41  25  52 S21G29    29.61F
SANTA FE       CLOUDY    44  27  51 SW13G20   29.62F
TAOS           CLOUDY    36  23  60 SW6       29.60F WCI  31
ANGEL FIRE     CLOUDY    33  23  66 SW14G24   29.62F WCI  24

$$
NMZ402-403-502-505>509-240500-
WESTCENTRAL MOUNTAINS/SOUTHWEST MOUNTAINS

CITY           SKY/WX    TMP DP  RH WIND       PRES   REMARKS
GALLUP         FLURRIES  32  30  92 W13       29.68F WCI  22
GRANTS         LGT RAIN  35  32  92 SW5       29.71R WCI  30
SILVER CITY    FAIR      45  31  57 W7        29.76F

$$
NMZ407-409-411-412-240500-
SOUTHERN DESERTS

CITY           SKY/WX    TMP DP  RH WIND       PRES   REMARKS
DEMING         FAIR      54  34  46 SW16G24   29.73F
LAS CRUCES     FAIR      52  34  49 S10       29.76F
HOLLOMAN AFB   FAIR      50  31  47 S15       29.76F
ALAMOGORDO     FAIR      55  28  35 S20G25    29.75F
T OR C         FAIR      52  29  41 SW15      29.68F

$$
NMZ519>523-240500-
CENTRAL VALLEYS/CENTRAL HIGHLANDS

CITY           SKY/WX    TMP DP  RH WIND       PRES   REMARKS
ALBUQUERQUE    MOCLDY    44  27  51 SE7       29.63F
DOUBLE EAGLE   CLOUDY    45  28  53 S10       29.63F
MORIARTY ARPT  CLOUDY    39  28  64 S9        29.66F WCI  32
CLINES CORNERS FAIR      39  28  64 SW26G33   29.67F WCI  28
BELEN          FAIR      47  30  50 S13G20    29.64F
SOCORRO        FAIR      49  32  51 S10       29.66S

$$
NMZ524>526-539-540-240500-
SOUTHCENTRAL MOUNTAINS

CITY           SKY/WX    TMP DP  RH WIND       PRES   REMARKS
RUIDOSO        FAIR      46  25  42 SW22G38   29.76F

$$
NMZ527>531-240500-
NORTHEAST HIGHLANDS/NORTHEAST PLAINS

CITY           SKY/WX    TMP DP  RH WIND       PRES   REMARKS
LAS VEGAS      CLOUDY    43  23  45 SW18G28   29.64F
RATON          FAIR      33  24  69 SW10      29.56F WCI  25
CLAYTON        FAIR      45  32  60 S18       29.59F

$$
NMZ532>537-240500-
EASTCENTRAL PLAINS

CITY           SKY/WX    TMP DP  RH WIND       PRES   REMARKS
TUCUMCARI      FAIR      47  28  47 SW13      29.62F
CANNON AFB     FAIR      41  27  56 SW9       29.69F
CLOVIS AIRPORT FAIR      39  27  60 S9        29.70F WCI  33

$$
NMZ028-029-538-240500-
SOUTHEAST PLAINS

CITY           SKY/WX    TMP DP  RH WIND       PRES   REMARKS
ROSWELL        FAIR      52  27  38 SW13      29.68F
ARTESIA        FAIR      48  27  43 SW12      29.72F
CARLSBAD       FAIR      50  28  42 SW14      29.72F


$$




USA.gov is the U.S. government's official web portal to all federal, state and local government web resources and services.